Location: Gerlach
(40.6516°N, 119.3568°W)
Time: 18:50:36
(UTC-07:00)

Envisat - Visible Passes

Search period start: 06 October 2022 00:00
Search period end: 16 October 2022 00:00
Orbit: 764 x 765 km, 98.2° (Epoch: 06 October)

Date Brightness Start Highest point End Pass type
(mag) Time Alt. Az. Time Alt. Az. Time Alt. Az.
06 Oct 3.2 05:10:16 10° NNE 05:15:21 70° ESE 05:20:23 10° S visible
07 Oct 4.7 04:33:46 10° NE 04:38:15 31° E 04:42:42 10° SSE visible
07 Oct 3.8 06:12:46 10° N 06:17:10 31° WNW 06:21:34 10° SW visible
08 Oct 5.8 03:58:27 10° ENE 04:00:57 14° E 04:03:26 10° ESE visible
08 Oct 2.9 05:35:22 10° N 05:40:25 67° WNW 05:45:26 10° SSW visible
09 Oct 3.7 04:58:28 10° NNE 05:03:28 54° E 05:08:24 10° S visible
10 Oct 5.1 04:22:12 10° NE 04:26:18 24° E 04:30:21 10° SSE visible
10 Oct 3.5 06:00:42 10° N 06:05:23 39° WNW 06:10:03 10° SW visible
11 Oct 6.1 03:48:34 10° E 03:48:56 10° E 03:49:17 10° E visible
11 Oct 2.9 05:23:28 10° NNE 05:28:34 86° WNW 05:33:38 10° SSW visible
12 Oct 4.1 04:46:44 10° NNE 04:51:32 42° E 04:56:19 10° S visible
12 Oct 4.1 06:26:19 10° NNW 06:30:16 23° WNW 06:34:12 10° WSW visible
13 Oct 5.5 04:10:47 10° NE 04:14:19 19° E 04:17:49 10° SE visible
13 Oct 3.2 05:48:41 10° N 05:53:35 49° WNW 05:58:26 10° SW visible
14 Oct 3.1 05:11:36 10° NNE 05:16:41 74° ESE 05:21:44 10° S visible
15 Oct 4.6 04:35:04 10° NNE 04:39:36 32° E 04:44:07 10° SSE visible
15 Oct 3.8 06:14:09 10° N 06:18:30 29° WNW 06:22:49 10° SW visible
